Weather History for Chipley, FL

Change the Weather History Date:

Friday, September 20, 2013

  Actual Average (KMAI) Record (KMAI)
Temperature  
Mean Temperature 86 °F 77 °F  
Max Temperature 93 °F 87 °F 99 °F (2010)
Min Temperature 78 °F 67 °F 59 °F (2006)
Degree Days  
Heating Degree Days 0    
Month to date heating degree days  
Since 1 July heating degree days  
Cooling Degree Days 20    
Month to date cooling degree days  
Year to date cooling degree days  
Growing Degree Days 36 (Base 50)    
Moisture  
Dew Point 73 °F    
Average Humidity 69    
Maximum Humidity 83    
Minimum Humidity 49    
Precipitation  
Precipitation 0.00 in 0.12 in 0.62 in (1998)
Month to date precipitation 2.56  
Year to date precipitation 40.89  
Sea Level Pressure  
Sea Level Pressure 29.91 in    
Wind  
Wind Speed 6 mph (SSE)    
Max Wind Speed 14 mph    
Max Gust Speed 20 mph    
Visibility 10 miles    
Events      
T = Trace of Precipitation, MM = Missing Value Source: NWS Daily Summary

Daily Weather History Graph

Daily Weather History Graph

Search for Another Location

Airport:

Trip Planner

Search our weather history database for the weather conditions in past years. The results will help you decide how hot, cold, wet, or windy it might be!

Date:

Astronomy

Sep. 20, 2013 Rise Set
Actual Time 6:29 AM CDT 6:41 PM CDT
Civil Twilight 6:05 AM CDT 7:05 PM CDT
Nautical Twilight 5:37 AM CDT 7:33 PM CDT
Astronomical Twilight 5:09 AM CDT 8:01 PM CDT
Moon 7:24 PM CDT (9/20) 7:35 AM CDT (9/20)
Length of Visible Light 12h 59m
Length of Day
12h 11m
Full, 98% of the Moon is Illuminated
Sep 20
Full
Sep 26
Last Quarter
Oct 4
New
Oct 11
First Quarter
Oct 18
Full

Hourly Weather History & Observations

Time (CDT) Temp. Heat Index Dew Point Humidity Pressure Visibility Wind Dir Wind Speed Gust Speed Precip Events Conditions
12:15 AM 80.6 °F 85.4 °F 73.4 °F 79% 30.00 in 10.0 mi ESE 5.8 mph - N/A   Clear
12:35 AM 80.6 °F 85.4 °F 73.4 °F 79% 30.00 in 10.0 mi East 3.5 mph - N/A   Clear
12:55 AM 80.6 °F 85.4 °F 73.4 °F 79% 29.99 in 10.0 mi ESE 4.6 mph - N/A   Scattered Clouds
1:15 AM 80.6 °F 85.4 °F 73.4 °F 79% 29.99 in 10.0 mi SE 3.5 mph - N/A   Mostly Cloudy
1:35 AM 80.6 °F 85.4 °F 73.4 °F 79% 29.99 in 10.0 mi Calm Calm - N/A   Overcast
1:55 AM 80.6 °F 85.4 °F 73.4 °F 79% 29.98 in 10.0 mi Calm Calm - N/A   Scattered Clouds
2:15 AM 80.6 °F 85.4 °F 73.4 °F 79% 29.97 in 10.0 mi Calm Calm - N/A   Clear
2:35 AM 80.6 °F 85.4 °F 73.4 °F 79% 29.97 in 10.0 mi Calm Calm - N/A   Clear
2:55 AM 80.6 °F 84.6 °F 71.6 °F 74% 29.97 in 10.0 mi ESE 4.6 mph - N/A   Clear
3:15 AM 80.6 °F 84.6 °F 71.6 °F 74% 29.96 in 10.0 mi SE 4.6 mph - N/A   Clear
3:35 AM 80.6 °F 84.6 °F 71.6 °F 74% 29.96 in 10.0 mi Calm Calm - N/A   Clear
3:55 AM 80.6 °F 84.6 °F 71.6 °F 74% 29.96 in 10.0 mi SE 3.5 mph - N/A   Clear
4:15 AM 80.6 °F 84.6 °F 71.6 °F 74% 29.96 in 10.0 mi Calm Calm - N/A   Clear
4:35 AM 80.6 °F 84.6 °F 71.6 °F 74% 29.96 in 10.0 mi SE 3.5 mph - N/A   Clear
4:55 AM 78.8 °F - 73.4 °F 83% 29.95 in 10.0 mi East 3.5 mph - N/A   Clear
5:15 AM 80.6 °F 85.4 °F 73.4 °F 79% 29.95 in 10.0 mi ESE 3.5 mph - N/A   Clear
5:35 AM 78.8 °F - 73.4 °F 83% 29.96 in 10.0 mi Calm Calm - N/A   Clear
5:55 AM 78.8 °F - 73.4 °F 83% 29.96 in 10.0 mi Calm Calm - N/A   Clear
6:15 AM 80.6 °F 85.4 °F 73.4 °F 79% 29.96 in 10.0 mi ESE 4.6 mph - N/A   Clear
6:35 AM 80.6 °F 85.4 °F 73.4 °F 79% 29.96 in 10.0 mi SE 4.6 mph - N/A   Clear
6:55 AM 80.6 °F 85.4 °F 73.4 °F 79% 29.96 in 10.0 mi ESE 3.5 mph - N/A   Clear
7:15 AM 80.6 °F 85.4 °F 73.4 °F 79% 29.96 in 10.0 mi Calm Calm - N/A   Clear
7:35 AM 80.6 °F 85.4 °F 73.4 °F 79% 29.96 in 10.0 mi East 3.5 mph - N/A   Clear
7:55 AM 80.6 °F 85.4 °F 73.4 °F 79% 29.96 in 10.0 mi ESE 4.6 mph - N/A   Clear
8:15 AM 80.6 °F 85.4 °F 73.4 °F 79% 29.96 in 10.0 mi SE 8.1 mph - N/A   Clear
8:35 AM 82.4 °F 88.2 °F 73.4 °F 74% 29.96 in 10.0 mi SSE 4.6 mph - N/A   Clear
8:55 AM 82.4 °F 88.2 °F 73.4 °F 74% 29.96 in 10.0 mi SE 5.8 mph - N/A   Scattered Clouds
9:15 AM 84.2 °F 90.9 °F 73.4 °F 70% 29.96 in 10.0 mi SSE 9.2 mph - N/A   Scattered Clouds
9:35 AM 84.2 °F 90.9 °F 73.4 °F 70% 29.96 in 10.0 mi SSE 6.9 mph - N/A   Scattered Clouds
9:55 AM 84.2 °F 90.9 °F 73.4 °F 70% 29.96 in 10.0 mi SSE 5.8 mph - N/A   Mostly Cloudy
10:15 AM 86.0 °F 93.4 °F 73.4 °F 66% 29.95 in 10.0 mi SSE 6.9 mph - N/A   Mostly Cloudy
10:35 AM 87.8 °F 95.6 °F 73.4 °F 62% 29.95 in 10.0 mi SSE 9.2 mph - N/A   Mostly Cloudy
10:55 AM 87.8 °F 95.6 °F 73.4 °F 62% 29.96 in 10.0 mi SSE 10.4 mph 16.1 mph N/A   Mostly Cloudy
11:15 AM 87.8 °F 95.6 °F 73.4 °F 62% 29.95 in 10.0 mi SSE 12.7 mph - N/A   Mostly Cloudy
11:35 AM 89.6 °F 96.2 °F 71.6 °F 55% 29.95 in 10.0 mi SSE 11.5 mph 19.6 mph N/A   Mostly Cloudy
11:55 AM 89.6 °F 98.2 °F 73.4 °F 59% 29.94 in 10.0 mi South 11.5 mph - N/A   Mostly Cloudy
12:15 PM 89.6 °F 96.2 °F 71.6 °F 55% 29.93 in 10.0 mi SSE 11.5 mph 16.1 mph N/A   Scattered Clouds
12:35 PM 91.4 °F 98.4 °F 71.6 °F 52% 29.93 in 10.0 mi SSE 9.2 mph - N/A   Scattered Clouds
12:55 PM 91.4 °F 98.4 °F 71.6 °F 52% 29.92 in 10.0 mi South 8.1 mph 18.4 mph N/A   Scattered Clouds
1:15 PM 91.4 °F 98.4 °F 71.6 °F 52% 29.91 in 10.0 mi SE 12.7 mph 17.3 mph N/A   Mostly Cloudy
1:35 PM 89.6 °F 96.2 °F 71.6 °F 55% 29.89 in 10.0 mi SSE 8.1 mph - N/A   Mostly Cloudy
1:55 PM 91.4 °F 98.4 °F 71.6 °F 52% 29.89 in 10.0 mi South 10.4 mph 17.3 mph N/A   Scattered Clouds
2:15 PM 91.4 °F 98.4 °F 71.6 °F 52% 29.88 in 10.0 mi South 10.4 mph 17.3 mph N/A   Partly Cloudy
2:35 PM 91.4 °F 98.4 °F 71.6 °F 52% 29.87 in 10.0 mi SSW 10.4 mph 16.1 mph N/A   Scattered Clouds
2:55 PM 93.2 °F 100.5 °F 71.6 °F 49% 29.86 in 10.0 mi SSE 9.2 mph 16.1 mph N/A   Scattered Clouds
3:15 PM 91.4 °F 98.4 °F 71.6 °F 52% 29.86 in 10.0 mi SSE 13.8 mph 19.6 mph N/A   Scattered Clouds
3:35 PM 91.4 °F 98.4 °F 71.6 °F 52% 29.85 in 10.0 mi SSE 11.5 mph 19.6 mph N/A   Scattered Clouds
3:55 PM 91.4 °F 98.4 °F 71.6 °F 52% 29.85 in 10.0 mi SSE 9.2 mph 17.3 mph N/A   Partly Cloudy
4:15 PM 89.6 °F 96.2 °F 71.6 °F 55% 29.84 in 10.0 mi SSE 13.8 mph 19.6 mph N/A   Partly Cloudy
4:35 PM 89.6 °F 96.2 °F 71.6 °F 55% 29.84 in 10.0 mi SSE 12.7 mph 17.3 mph N/A   Scattered Clouds
4:55 PM 87.8 °F 95.6 °F 73.4 °F 62% 29.84 in 10.0 mi South 10.4 mph - N/A   Scattered Clouds
5:15 PM 87.8 °F 95.6 °F 73.4 °F 62% 29.84 in 10.0 mi South 11.5 mph 19.6 mph N/A   Mostly Cloudy
5:35 PM 87.8 °F 95.6 °F 73.4 °F 62% 29.84 in 10.0 mi South 12.7 mph - N/A   Scattered Clouds
5:55 PM 86.0 °F 93.4 °F 73.4 °F 66% 29.84 in 10.0 mi SSE 12.7 mph 18.4 mph N/A   Partly Cloudy
6:15 PM 86.0 °F 93.4 °F 73.4 °F 66% 29.84 in 10.0 mi SSE 9.2 mph - N/A   Scattered Clouds
6:35 PM 84.2 °F 90.9 °F 73.4 °F 70% 29.84 in 10.0 mi South 12.7 mph 19.6 mph N/A   Partly Cloudy
6:55 PM 84.2 °F 90.9 °F 73.4 °F 70% 29.84 in 10.0 mi SSE 9.2 mph - N/A   Clear
7:15 PM 84.2 °F 90.9 °F 73.4 °F 70% 29.85 in 10.0 mi South 9.2 mph - N/A   Clear
7:35 PM 84.2 °F 90.9 °F 73.4 °F 70% 29.85 in 10.0 mi South 9.2 mph 16.1 mph N/A   Clear
7:55 PM 84.2 °F 90.9 °F 73.4 °F 70% 29.86 in 10.0 mi South 8.1 mph - N/A   Clear
8:15 PM 84.2 °F 90.9 °F 73.4 °F 70% 29.86 in 10.0 mi South 6.9 mph - N/A   Clear
8:35 PM 84.2 °F 90.9 °F 73.4 °F 70% 29.85 in 10.0 mi SSE 9.2 mph - N/A   Clear
8:55 PM 84.2 °F 90.9 °F 73.4 °F 70% 29.86 in 10.0 mi SSE 8.1 mph - N/A   Clear
9:15 PM 84.2 °F 90.9 °F 73.4 °F 70% 29.86 in 10.0 mi SSE 8.1 mph - N/A   Clear
9:35 PM 82.4 °F 88.2 °F 73.4 °F 74% 29.85 in 10.0 mi SSE 10.4 mph - N/A   Clear
9:55 PM 82.4 °F 88.2 °F 73.4 °F 74% 29.85 in 10.0 mi South 8.1 mph - N/A   Clear
10:15 PM 82.4 °F 88.2 °F 73.4 °F 74% 29.85 in 10.0 mi South 9.2 mph - N/A   Clear
10:35 PM 82.4 °F 88.2 °F 73.4 °F 74% 29.85 in 10.0 mi South 9.2 mph - N/A   Partly Cloudy
10:55 PM 82.4 °F 88.2 °F 73.4 °F 74% 29.85 in 10.0 mi South 6.9 mph - N/A   Scattered Clouds
11:15 PM 82.4 °F 88.2 °F 73.4 °F 74% 29.84 in 10.0 mi SSE 6.9 mph - N/A   Scattered Clouds
11:35 PM 82.4 °F 88.2 °F 73.4 °F 74% 29.84 in 10.0 mi South 9.2 mph - N/A   Partly Cloudy
11:55 PM 82.4 °F 88.2 °F 73.4 °F 74% 29.82 in 10.0 mi South 10.4 mph 16.1 mph N/A   Partly Cloudy